FDX5031 RCTP-RPLL

Flight info

Callsign FDX5031
Flight time 1h 43m
Altitude 34000
Route TINHO Q11 POTIB M646 LAO B462 CAB
Aircraft MD11/H-SDE1E2E3FGHIJ2J3J4J5M1RWXY/LB1D1

Departure

Time 2026-05-06 12:45
Airport Taiwan Taoyuan International Airport (RCTP)

Arrival

Time 2026-05-06 14:28
Airport Ninoy Aquino International Airport (RPLL)
Time Latitude Longitude Altitude Speed Heading
2026-05-06 12:14 25.09277 121.24646 108 ft 0 kts 139°
2026-05-06 12:27 25.09286 121.24637 107 ft 3 kts 138°
2026-05-06 12:27 25.09301 121.24622 108 ft 3 kts 137°
2026-05-06 12:28 25.09316 121.24607 106 ft 3 kts 138°
2026-05-06 12:28 25.09331 121.24593 107 ft 3 kts 142°
2026-05-06 12:28 25.09347 121.24580 108 ft 3 kts 154°
2026-05-06 12:28 25.09363 121.24573 106 ft 3 kts 182°
2026-05-06 12:29 25.09373 121.24572 108 ft 2 kts 224°
2026-05-06 12:29 25.09382 121.24582 107 ft 3 kts 229°
2026-05-06 12:29 25.09395 121.24599 107 ft 3 kts 229°
2026-05-06 12:29 25.09403 121.24610 107 ft 0 kts 229°
2026-05-06 12:33 25.09403 121.24609 107 ft 1 kts 226°
2026-05-06 12:34 25.09383 121.24585 107 ft 8 kts 228°
2026-05-06 12:34 25.09345 121.24539 108 ft 8 kts 228°
2026-05-06 12:34 25.09312 121.24495 107 ft 8 kts 229°
2026-05-06 12:34 25.09265 121.24434 107 ft 14 kts 229°
2026-05-06 12:35 25.09189 121.24336 108 ft 20 kts 229°
2026-05-06 12:35 25.09089 121.24208 107 ft 17 kts 229°
2026-05-06 12:35 25.09045 121.24153 107 ft 16 kts 229°
2026-05-06 12:35 25.08994 121.24088 108 ft 18 kts 229°
2026-05-06 12:36 25.08893 121.23960 108 ft 25 kts 229°
2026-05-06 12:36 25.08784 121.23821 108 ft 23 kts 229°
2026-05-06 12:36 25.08682 121.23691 108 ft 17 kts 229°
2026-05-06 12:36 25.08674 121.23681 108 ft 0 kts 229°
2026-05-06 12:39 25.08674 121.23680 108 ft 1 kts 229°
2026-05-06 12:39 25.08643 121.23642 107 ft 13 kts 229°
2026-05-06 12:39 25.08556 121.23530 108 ft 25 kts 229°
2026-05-06 12:40 25.08436 121.23379 108 ft 25 kts 229°
2026-05-06 12:40 25.08324 121.23237 108 ft 24 kts 229°
2026-05-06 12:40 25.08220 121.23103 108 ft 22 kts 229°
2026-05-06 12:40 25.08124 121.22980 108 ft 20 kts 229°
2026-05-06 12:41 25.08035 121.22868 108 ft 18 kts 229°
2026-05-06 12:41 25.07955 121.22767 107 ft 17 kts 229°
2026-05-06 12:41 25.07882 121.22674 108 ft 16 kts 229°
2026-05-06 12:41 25.07795 121.22562 107 ft 22 kts 229°
2026-05-06 12:42 25.07698 121.22438 108 ft 21 kts 229°
2026-05-06 12:42 25.07605 121.22319 108 ft 20 kts 229°
2026-05-06 12:42 25.07518 121.22208 107 ft 19 kts 228°
2026-05-06 12:42 25.07431 121.22099 108 ft 20 kts 229°
2026-05-06 12:43 25.07343 121.21988 107 ft 19 kts 229°
2026-05-06 12:43 25.07260 121.21882 108 ft 18 kts 229°
2026-05-06 12:43 25.07188 121.21786 107 ft 10 kts 239°
2026-05-06 12:43 25.07185 121.21753 108 ft 3 kts 280°
2026-05-06 12:44 25.07201 121.21715 107 ft 10 kts 302°
2026-05-06 12:44 25.07271 121.21650 110 ft 14 kts 329°
2026-05-06 12:44 25.07324 121.21645 109 ft 1 kts 30°
2026-05-06 12:44 25.07331 121.21653 109 ft 5 kts 42°
2026-05-06 12:45 25.07508 121.21875 107 ft 82 kts 51°
2026-05-06 12:45 25.08064 121.22582 107 ft 158 kts 49°
2026-05-06 12:45 25.09641 121.24610 1521 ft 174 kts 51°
2026-05-06 12:46 25.10454 121.25642 2306 ft 184 kts 51°
2026-05-06 12:46 25.11301 121.26727 3118 ft 190 kts 50°
2026-05-06 12:46 25.12230 121.27920 3506 ft 222 kts 50°
2026-05-06 12:46 25.13296 121.29300 3668 ft 248 kts 51°
2026-05-06 12:47 25.14161 121.31012 3791 ft 267 kts 76°
2026-05-06 12:47 25.14183 121.33068 4337 ft 272 kts 105°
2026-05-06 12:47 25.13335 121.34918 5041 ft 274 kts 133°
2026-05-06 12:47 25.11829 121.36172 5773 ft 272 kts 154°
2026-05-06 12:48 25.10150 121.37289 6314 ft 286 kts 146°
2026-05-06 12:48 25.08580 121.38622 7205 ft 284 kts 144°
2026-05-06 12:48 25.07038 121.40011 7964 ft 288 kts 143°
2026-05-06 12:48 25.05504 121.41405 8709 ft 291 kts 143°
2026-05-06 12:49 25.03926 121.42832 9457 ft 295 kts 144°
2026-05-06 12:49 25.02325 121.44269 10146 ft 301 kts 144°
2026-05-06 12:49 25.00620 121.45787 10289 ft 328 kts 144°
2026-05-06 12:49 24.98772 121.47426 10412 ft 353 kts 144°
2026-05-06 12:50 24.96798 121.49174 10731 ft 370 kts 143°
2026-05-06 12:50 24.94787 121.50959 11431 ft 375 kts 143°
2026-05-06 12:50 24.92743 121.52772 12134 ft 380 kts 142°
2026-05-06 12:50 24.90668 121.54609 12840 ft 384 kts 142°
2026-05-06 12:51 24.88574 121.56462 13523 ft 389 kts 142°
2026-05-06 12:51 24.86444 121.58345 14123 ft 395 kts 142°
2026-05-06 12:51 24.84293 121.60245 14774 ft 398 kts 142°
2026-05-06 12:51 24.82118 121.62163 15402 ft 401 kts 142°
2026-05-06 12:52 24.79746 121.63810 15936 ft 403 kts 158°
2026-05-06 12:52 24.77053 121.64625 16543 ft 403 kts 174°
2026-05-06 12:52 24.74274 121.64878 17069 ft 407 kts 178°
2026-05-06 12:52 24.71432 121.65050 17688 ft 410 kts 179°
2026-05-06 12:53 24.68565 121.65205 18290 ft 414 kts 179°
2026-05-06 12:53 24.65666 121.65358 18810 ft 417 kts 179°
2026-05-06 12:53 24.62755 121.65514 19349 ft 420 kts 179°
2026-05-06 12:53 24.59821 121.65674 19877 ft 423 kts 179°
2026-05-06 12:54 24.56868 121.65837 20386 ft 427 kts 179°
2026-05-06 12:54 24.53892 121.66004 20906 ft 430 kts 179°
2026-05-06 12:54 24.50888 121.66172 21407 ft 433 kts 179°
2026-05-06 12:54 24.47862 121.66343 21901 ft 437 kts 179°
2026-05-06 12:55 24.44853 121.66512 22367 ft 441 kts 179°
2026-05-06 12:55 24.41779 121.66685 22882 ft 444 kts 178°
2026-05-06 12:55 24.38683 121.66859 23380 ft 447 kts 178°
2026-05-06 12:55 24.35559 121.67035 23833 ft 451 kts 178°
2026-05-06 12:56 24.32418 121.67211 24249 ft 454 kts 179°
2026-05-06 12:56 24.29257 121.67389 24685 ft 456 kts 179°
2026-05-06 12:56 24.26074 121.67567 25053 ft 460 kts 179°
2026-05-06 12:56 24.22869 121.67747 25437 ft 462 kts 179°
2026-05-06 12:57 24.19651 121.67927 25823 ft 464 kts 179°
2026-05-06 12:57 24.16418 121.68107 26198 ft 467 kts 179°
2026-05-06 12:57 24.13160 121.68289 26573 ft 470 kts 180°
2026-05-06 12:57 24.09885 121.68472 26941 ft 473 kts 180°
2026-05-06 12:58 24.06577 121.68657 27300 ft 476 kts 180°
2026-05-06 12:58 24.03262 121.68842 27652 ft 479 kts 180°
2026-05-06 12:58 23.99919 121.69029 28009 ft 482 kts 180°
2026-05-06 12:58 23.96595 121.69214 28348 ft 485 kts 180°
2026-05-06 12:59 23.93215 121.69402 28695 ft 488 kts 180°
2026-05-06 12:59 23.89823 121.69591 29032 ft 491 kts 180°
2026-05-06 12:59 23.86399 121.69781 29336 ft 493 kts 180°
2026-05-06 12:59 23.82956 121.69972 29662 ft 497 kts 180°
2026-05-06 13:00 23.79498 121.70164 29995 ft 500 kts 180°
2026-05-06 13:00 23.76005 121.70358 30312 ft 502 kts 180°
2026-05-06 13:00 23.73697 121.70487 30562 ft 502 kts 180°
2026-05-06 13:00 23.70206 121.70682 30980 ft 502 kts 180°
2026-05-06 13:01 23.66722 121.70877 31410 ft 501 kts 180°
2026-05-06 13:01 23.62066 121.71137 31957 ft 500 kts 180°
2026-05-06 13:01 23.59765 121.71265 32225 ft 500 kts 180°
2026-05-06 13:01 23.55156 121.71520 32726 ft 499 kts 180°
2026-05-06 13:02 23.51688 121.71712 33099 ft 499 kts 180°
2026-05-06 13:02 23.49347 121.71842 33356 ft 498 kts 180°
2026-05-06 13:02 23.45880 121.72034 33742 ft 497 kts 180°
2026-05-06 13:02 23.42457 121.72142 33965 ft 498 kts 185°
2026-05-06 13:03 23.39006 121.71791 34016 ft 498 kts 194°
2026-05-06 13:03 23.32307 121.69815 34020 ft 502 kts 202°
2026-05-06 13:04 23.25639 121.67417 34017 ft 506 kts 202°
2026-05-06 13:04 23.18929 121.65134 34015 ft 505 kts 200°
2026-05-06 13:05 23.12190 121.62951 34017 ft 505 kts 200°
2026-05-06 13:05 23.05443 121.60794 34005 ft 505 kts 200°
2026-05-06 13:06 22.98670 121.58625 34015 ft 508 kts 200°
2026-05-06 13:06 22.91885 121.56448 34011 ft 508 kts 200°
2026-05-06 13:07 22.85106 121.54273 34007 ft 508 kts 200°
2026-05-06 13:07 22.78376 121.52116 34002 ft 507 kts 200°
2026-05-06 13:08 22.71630 121.49882 34009 ft 506 kts 202°
2026-05-06 13:08 22.65024 121.47274 34005 ft 505 kts 206°
2026-05-06 13:09 22.58522 121.44419 34004 ft 504 kts 206°
2026-05-06 13:09 22.52018 121.41552 33996 ft 504 kts 206°
2026-05-06 13:10 22.45499 121.38716 34004 ft 504 kts 206°
2026-05-06 13:10 22.38973 121.35895 34007 ft 504 kts 206°
2026-05-06 13:11 22.32495 121.33100 34006 ft 504 kts 206°
2026-05-06 13:11 22.25978 121.30288 34006 ft 504 kts 205°
2026-05-06 13:12 22.19450 121.27474 34011 ft 504 kts 205°
2026-05-06 13:12 22.12939 121.24670 34013 ft 504 kts 205°
2026-05-06 13:13 22.06426 121.21868 34019 ft 503 kts 205°
2026-05-06 13:13 21.99922 121.19073 34023 ft 503 kts 205°
2026-05-06 13:14 21.93432 121.16251 34017 ft 503 kts 206°
2026-05-06 13:14 21.86998 121.13431 34017 ft 503 kts 206°
2026-05-06 13:15 21.80514 121.10589 34014 ft 503 kts 206°
2026-05-06 13:15 21.74035 121.07754 34011 ft 502 kts 206°
2026-05-06 13:16 21.67566 121.04928 34013 ft 502 kts 205°
2026-05-06 13:16 21.61082 121.02097 34010 ft 502 kts 205°
2026-05-06 13:17 21.54613 120.99276 34010 ft 502 kts 205°
2026-05-06 13:17 21.48144 120.96458 34015 ft 501 kts 205°
2026-05-06 13:18 21.41680 120.93644 33994 ft 501 kts 205°
2026-05-06 13:18 21.35225 120.90838 34009 ft 501 kts 205°
2026-05-06 13:19 21.28765 120.88031 34010 ft 501 kts 205°
2026-05-06 13:19 21.22355 120.85250 34003 ft 500 kts 205°
2026-05-06 13:20 21.15907 120.82461 34002 ft 499 kts 205°
2026-05-06 13:20 21.09467 120.79676 34003 ft 499 kts 205°
2026-05-06 13:21 21.03012 120.76898 34005 ft 500 kts 203°
2026-05-06 13:21 20.96214 120.75200 33998 ft 505 kts 188°
2026-05-06 13:22 20.89187 120.74752 33996 ft 506 kts 185°
2026-05-06 13:22 20.82142 120.74384 34001 ft 506 kts 186°
2026-05-06 13:23 20.75120 120.73866 33998 ft 505 kts 187°
2026-05-06 13:23 20.68107 120.73282 33992 ft 504 kts 187°
2026-05-06 13:24 20.61167 120.72697 33996 ft 504 kts 187°
2026-05-06 13:24 20.54181 120.72116 33996 ft 503 kts 187°
2026-05-06 13:25 20.47191 120.71537 33993 ft 503 kts 187°
2026-05-06 13:25 20.40198 120.70960 33991 ft 503 kts 187°
2026-05-06 13:26 20.33219 120.70384 33988 ft 502 kts 187°
2026-05-06 13:26 20.26244 120.69809 33988 ft 502 kts 187°
2026-05-06 13:27 20.19303 120.69237 33988 ft 502 kts 187°
2026-05-06 13:27 20.12336 120.68664 33983 ft 502 kts 186°
2026-05-06 13:28 20.05361 120.68091 33985 ft 502 kts 186°
2026-05-06 13:28 19.98386 120.67518 33984 ft 503 kts 186°
2026-05-06 13:29 19.91404 120.66945 33984 ft 503 kts 186°
2026-05-06 13:29 19.84435 120.66374 33980 ft 502 kts 186°
2026-05-06 13:30 19.77460 120.65802 33983 ft 503 kts 186°
2026-05-06 13:30 19.70481 120.65230 33983 ft 503 kts 186°
2026-05-06 13:31 19.63515 120.64661 33978 ft 503 kts 186°
2026-05-06 13:31 19.56540 120.64090 33969 ft 502 kts 186°
2026-05-06 13:32 19.49611 120.63524 33976 ft 503 kts 186°
2026-05-06 13:32 19.42630 120.62955 33977 ft 503 kts 186°
2026-05-06 13:33 19.35650 120.62389 33974 ft 503 kts 186°
2026-05-06 13:33 19.28672 120.61824 33974 ft 503 kts 186°
2026-05-06 13:34 19.21684 120.61259 33969 ft 503 kts 186°
2026-05-06 13:34 19.14709 120.60695 33971 ft 502 kts 186°
2026-05-06 13:35 19.07779 120.60135 33971 ft 502 kts 186°
2026-05-06 13:35 19.00813 120.59573 33975 ft 502 kts 186°
2026-05-06 13:36 18.93844 120.59012 33968 ft 502 kts 186°
2026-05-06 13:36 18.86865 120.58450 33960 ft 502 kts 186°
2026-05-06 13:37 18.79906 120.57890 33958 ft 501 kts 186°
2026-05-06 13:37 18.72946 120.57330 33955 ft 501 kts 186°
2026-05-06 13:38 18.65998 120.56771 33957 ft 501 kts 186°
2026-05-06 13:38 18.59047 120.56210 33952 ft 500 kts 186°
2026-05-06 13:39 18.52148 120.55653 33947 ft 500 kts 186°
2026-05-06 13:39 18.45208 120.55093 33949 ft 499 kts 186°
2026-05-06 13:40 18.38294 120.54535 33947 ft 495 kts 186°
2026-05-06 13:40 18.31442 120.53984 33949 ft 491 kts 186°
2026-05-06 13:41 18.24663 120.53438 33941 ft 492 kts 186°
2026-05-06 13:41 18.17826 120.53027 33940 ft 494 kts 180°
2026-05-06 13:42 18.10991 120.53931 33939 ft 496 kts 171°
2026-05-06 13:42 18.04227 120.55352 33944 ft 495 kts 170°
2026-05-06 13:43 17.97464 120.56717 33946 ft 495 kts 171°
2026-05-06 13:43 17.90682 120.57992 33954 ft 495 kts 172°
2026-05-06 13:44 17.83895 120.59241 33959 ft 495 kts 172°
2026-05-06 13:44 17.77114 120.60488 33959 ft 494 kts 171°
2026-05-06 13:45 17.70355 120.61735 33962 ft 493 kts 171°
2026-05-06 13:45 17.60198 120.63609 33985 ft 494 kts 171°
2026-05-06 13:46 17.53470 120.64851 33994 ft 493 kts 171°
2026-05-06 13:46 17.46704 120.66098 33993 ft 494 kts 171°
2026-05-06 13:47 17.39927 120.67347 33999 ft 494 kts 171°
2026-05-06 13:47 17.34302 120.68383 33999 ft 494 kts 171°
2026-05-06 13:48 17.27535 120.69629 34011 ft 493 kts 171°
2026-05-06 13:48 17.19674 120.71086 34020 ft 493 kts 171°
2026-05-06 13:49 17.14043 120.72133 34025 ft 493 kts 171°
2026-05-06 13:49 17.07276 120.73390 34038 ft 493 kts 171°
2026-05-06 13:50 17.00516 120.74645 34062 ft 493 kts 171°
2026-05-06 13:50 16.93761 120.75897 34067 ft 493 kts 171°
2026-05-06 13:51 16.87003 120.77149 34065 ft 493 kts 171°
2026-05-06 13:51 16.80299 120.78391 34074 ft 492 kts 171°
2026-05-06 13:52 16.73548 120.79640 34075 ft 492 kts 171°
2026-05-06 13:52 16.66796 120.80888 34072 ft 492 kts 171°
2026-05-06 13:53 16.60063 120.82132 34073 ft 491 kts 171°
2026-05-06 13:53 16.53327 120.83375 34059 ft 491 kts 171°
2026-05-06 13:54 16.46595 120.84617 34060 ft 491 kts 171°
2026-05-06 13:54 16.39907 120.85848 34045 ft 491 kts 171°
2026-05-06 13:55 16.33174 120.87086 34048 ft 491 kts 171°
2026-05-06 13:55 16.26435 120.88327 34028 ft 491 kts 171°
2026-05-06 13:56 16.19701 120.89565 34010 ft 491 kts 171°
2026-05-06 13:56 16.12970 120.90803 34007 ft 491 kts 171°
2026-05-06 13:57 16.06247 120.92038 34015 ft 491 kts 171°
2026-05-06 13:57 15.99511 120.93275 34012 ft 491 kts 171°
2026-05-06 13:58 15.92782 120.94509 33996 ft 491 kts 171°
2026-05-06 13:58 15.86117 120.95731 33994 ft 483 kts 171°
2026-05-06 13:59 15.79564 120.96932 33990 ft 477 kts 171°
2026-05-06 13:59 15.73031 120.98128 33992 ft 477 kts 171°
2026-05-06 14:00 15.69740 120.98729 33281 ft 482 kts 171°
2026-05-06 14:00 15.66450 120.99331 32500 ft 479 kts 171°
2026-05-06 14:00 15.63176 120.99930 31890 ft 476 kts 171°
2026-05-06 14:00 15.59965 121.00517 31485 ft 461 kts 171°
2026-05-06 14:01 15.56864 121.01085 31126 ft 445 kts 171°
2026-05-06 14:01 15.53859 121.01634 30742 ft 431 kts 171°
2026-05-06 14:01 15.50938 121.02157 30219 ft 421 kts 173°
2026-05-06 14:01 15.48040 121.02312 29401 ft 414 kts 187°
2026-05-06 14:02 15.45240 121.01716 28611 ft 408 kts 199°
2026-05-06 14:02 15.42617 121.00725 27930 ft 402 kts 203°
2026-05-06 14:02 15.40055 120.99615 27289 ft 397 kts 204°
2026-05-06 14:02 15.37523 120.98506 26666 ft 391 kts 203°
2026-05-06 14:03 15.35023 120.97439 26065 ft 386 kts 202°
2026-05-06 14:03 15.32542 120.96411 25470 ft 382 kts 202°
2026-05-06 14:03 15.30078 120.95412 24881 ft 378 kts 201°
2026-05-06 14:03 15.27635 120.94435 24302 ft 375 kts 201°
2026-05-06 14:04 15.25209 120.93472 23719 ft 372 kts 201°
2026-05-06 14:04 15.22805 120.92521 23078 ft 369 kts 201°
2026-05-06 14:04 15.20419 120.91579 22458 ft 365 kts 201°
2026-05-06 14:04 15.18056 120.90646 21873 ft 361 kts 201°
2026-05-06 14:05 15.15720 120.89725 21304 ft 358 kts 201°
2026-05-06 14:05 15.13397 120.88809 20751 ft 356 kts 201°
2026-05-06 14:05 15.11087 120.87898 20196 ft 354 kts 201°
2026-05-06 14:05 15.08794 120.86994 19640 ft 352 kts 201°
2026-05-06 14:06 15.06511 120.86094 19085 ft 350 kts 201°
2026-05-06 14:06 15.04277 120.85214 18672 ft 343 kts 200°
2026-05-06 14:06 15.02060 120.84340 18515 ft 344 kts 200°
2026-05-06 14:06 14.99827 120.83461 18348 ft 342 kts 200°
2026-05-06 14:07 14.97597 120.82583 18164 ft 342 kts 200°
2026-05-06 14:07 14.95375 120.81708 17981 ft 341 kts 200°
2026-05-06 14:07 14.93157 120.80837 17787 ft 340 kts 200°
2026-05-06 14:07 14.90945 120.79969 17631 ft 339 kts 200°
2026-05-06 14:08 14.88735 120.79102 17472 ft 338 kts 200°
2026-05-06 14:08 14.86536 120.78240 17302 ft 336 kts 200°
2026-05-06 14:08 14.84360 120.77386 16794 ft 332 kts 200°
2026-05-06 14:08 14.82192 120.76535 16269 ft 334 kts 200°
2026-05-06 14:09 14.80016 120.75682 15708 ft 335 kts 200°
2026-05-06 14:09 14.77844 120.74830 15140 ft 330 kts 200°
2026-05-06 14:09 14.75712 120.73993 14592 ft 327 kts 199°
2026-05-06 14:09 14.73594 120.73162 14053 ft 323 kts 199°
2026-05-06 14:10 14.71504 120.72343 13487 ft 321 kts 199°
2026-05-06 14:10 14.69421 120.71527 12962 ft 317 kts 199°
2026-05-06 14:10 14.67362 120.70720 12647 ft 317 kts 199°
2026-05-06 14:10 14.65324 120.69980 12303 ft 303 kts 190°
2026-05-06 14:11 14.63273 120.69912 11815 ft 291 kts 165°
2026-05-06 14:11 14.61424 120.70634 11345 ft 281 kts 150°
2026-05-06 14:11 14.59731 120.71604 10864 ft 276 kts 147°
2026-05-06 14:11 14.58083 120.72591 10434 ft 271 kts 147°
2026-05-06 14:12 14.56488 120.73541 10192 ft 259 kts 147°
2026-05-06 14:12 14.54930 120.74461 9770 ft 257 kts 147°
2026-05-06 14:12 14.53380 120.75359 9296 ft 255 kts 152°
2026-05-06 14:12 14.51681 120.75764 8788 ft 256 kts 179°
2026-05-06 14:13 14.49956 120.75299 8165 ft 260 kts 208°
2026-05-06 14:13 14.48630 120.74050 7590 ft 259 kts 232°
2026-05-06 14:13 14.47632 120.72502 7006 ft 258 kts 237°
2026-05-06 14:13 14.46686 120.70933 6450 ft 256 kts 237°
2026-05-06 14:14 14.45759 120.69394 6078 ft 252 kts 237°
2026-05-06 14:14 14.44832 120.67870 5735 ft 248 kts 237°
2026-05-06 14:14 14.43937 120.66398 5367 ft 245 kts 237°
2026-05-06 14:14 14.43040 120.64913 5081 ft 242 kts 237°
2026-05-06 14:15 14.42151 120.63441 5026 ft 243 kts 237°
2026-05-06 14:15 14.41258 120.61963 5010 ft 242 kts 237°
2026-05-06 14:15 14.40364 120.60484 5013 ft 243 kts 237°
2026-05-06 14:15 14.39478 120.59012 5006 ft 237 kts 237°
2026-05-06 14:16 14.38623 120.57590 5004 ft 232 kts 237°
2026-05-06 14:16 14.37773 120.56177 4997 ft 231 kts 237°
2026-05-06 14:16 14.36923 120.54763 5013 ft 232 kts 237°
2026-05-06 14:16 14.36074 120.53346 5009 ft 232 kts 237°
2026-05-06 14:17 14.35237 120.51951 5011 ft 232 kts 237°
2026-05-06 14:17 14.34306 120.50601 5001 ft 230 kts 220°
2026-05-06 14:17 14.32929 120.49848 5000 ft 224 kts 187°
2026-05-06 14:17 14.31422 120.49979 5009 ft 217 kts 155°
2026-05-06 14:18 14.30127 120.50750 5006 ft 215 kts 133°
2026-05-06 14:18 14.29401 120.52038 4998 ft 208 kts 99°
2026-05-06 14:18 14.29329 120.53522 5023 ft 209 kts 88°
2026-05-06 14:18 14.29383 120.55018 5010 ft 209 kts 87°
2026-05-06 14:19 14.29442 120.56513 5015 ft 208 kts 87°
2026-05-06 14:19 14.29500 120.58013 5016 ft 209 kts 87°
2026-05-06 14:19 14.29558 120.59509 5007 ft 209 kts 87°
2026-05-06 14:19 14.29628 120.61009 5007 ft 209 kts 82°
2026-05-06 14:20 14.30023 120.62448 5011 ft 209 kts 69°
2026-05-06 14:20 14.30562 120.63845 5014 ft 210 kts 69°
2026-05-06 14:20 14.31108 120.65245 5013 ft 210 kts 68°
2026-05-06 14:20 14.31748 120.66594 5007 ft 210 kts 61°
2026-05-06 14:21 14.32471 120.67906 5016 ft 210 kts 61°
2026-05-06 14:21 14.33190 120.69216 5011 ft 209 kts 61°
2026-05-06 14:21 14.33906 120.70525 5013 ft 210 kts 62°
2026-05-06 14:21 14.34621 120.71836 5011 ft 209 kts 61°
2026-05-06 14:22 14.35334 120.73147 5015 ft 210 kts 62°
2026-05-06 14:22 14.36047 120.74460 5012 ft 210 kts 62°
2026-05-06 14:22 14.36759 120.75772 5009 ft 210 kts 62°
2026-05-06 14:22 14.37466 120.77077 4785 ft 210 kts 62°
2026-05-06 14:23 14.38174 120.78387 4528 ft 209 kts 62°
2026-05-06 14:23 14.38878 120.79691 4267 ft 208 kts 62°
2026-05-06 14:23 14.39580 120.80992 4007 ft 207 kts 62°
2026-05-06 14:23 14.40279 120.82287 3745 ft 206 kts 63°
2026-05-06 14:24 14.40970 120.83572 3491 ft 204 kts 63°
2026-05-06 14:24 14.41649 120.84833 3236 ft 193 kts 63°
2026-05-06 14:24 14.42289 120.86020 2994 ft 188 kts 63°
2026-05-06 14:24 14.42915 120.87187 2754 ft 185 kts 63°
2026-05-06 14:25 14.43540 120.88350 2528 ft 184 kts 63°
2026-05-06 14:25 14.44153 120.89491 2297 ft 178 kts 62°
2026-05-06 14:25 14.44747 120.90599 2049 ft 173 kts 62°
2026-05-06 14:25 14.45309 120.91643 1805 ft 163 kts 63°
2026-05-06 14:26 14.45852 120.92656 1637 ft 164 kts 64°
2026-05-06 14:26 14.46408 120.93694 1442 ft 165 kts 65°
2026-05-06 14:26 14.46959 120.94722 1233 ft 163 kts 64°
2026-05-06 14:26 14.47506 120.95742 1045 ft 162 kts 63°
2026-05-06 14:27 14.48042 120.96763 837 ft 160 kts 66°
2026-05-06 14:27 14.48547 120.97801 636 ft 161 kts 62°
2026-05-06 14:27 14.49117 120.98797 392 ft 159 kts 62°
2026-05-06 14:27 14.49672 120.99796 209 ft 163 kts 62°
2026-05-06 14:28 14.50207 121.00770 67 ft 137 kts 61°
2026-05-06 14:28 14.50601 121.01475 67 ft 91 kts 59°
2026-05-06 14:28 14.50855 121.01932 67 ft 56 kts 60°
2026-05-06 14:28 14.51001 121.02189 71 ft 33 kts 56°
2026-05-06 14:29 14.51151 121.02301 70 ft 8 kts
2026-05-06 14:29 14.51176 121.02288 70 ft 2 kts 316°
2026-05-06 14:29 14.51181 121.02275 69 ft 1 kts 291°
2026-05-06 14:29 14.51180 121.02260 69 ft 6 kts 268°
2026-05-06 14:30 14.51153 121.02189 68 ft 12 kts 238°
2026-05-06 14:30 14.51112 121.02115 66 ft 12 kts 239°
2026-05-06 14:30 14.51072 121.02044 66 ft 12 kts 240°
2026-05-06 14:30 14.51027 121.01964 69 ft 15 kts 239°
2026-05-06 14:31 14.50999 121.01914 65 ft 0 kts 240°
2026-05-06 14:32 14.50998 121.01911 65 ft 2 kts 240°
2026-05-06 14:32 14.50972 121.01864 67 ft 12 kts 240°
2026-05-06 14:32 14.50929 121.01786 71 ft 13 kts 240°
2026-05-06 14:32 14.50886 121.01708 67 ft 12 kts 240°
2026-05-06 14:33 14.50858 121.01659 66 ft 12 kts 240°
2026-05-06 14:33 14.50803 121.01559 65 ft 12 kts 240°
2026-05-06 14:33 14.50759 121.01481 67 ft 13 kts 240°
2026-05-06 14:33 14.50714 121.01400 66 ft 13 kts 240°
2026-05-06 14:34 14.50669 121.01318 66 ft 13 kts 240°
2026-05-06 14:34 14.50623 121.01236 69 ft 13 kts 240°
2026-05-06 14:34 14.50594 121.01180 66 ft 12 kts 248°
2026-05-06 14:34 14.50610 121.01120 71 ft 9 kts 297°
2026-05-06 14:35 14.50610 121.01073 67 ft 6 kts 259°
2026-05-06 14:35 14.50595 121.01039 65 ft 5 kts 241°
2026-05-06 14:35 14.50581 121.01012 69 ft 4 kts 240°
2026-05-06 14:35 14.50568 121.00989 65 ft 3 kts 239°
2026-05-06 14:36 14.50557 121.00970 67 ft 3 kts 239°
2026-05-06 14:36 14.50548 121.00955 72 ft 2 kts 239°
2026-05-06 14:36 14.50547 121.00948 73 ft 0 kts 254°
2026-05-06 14:36 14.50550 121.00941 68 ft 3 kts 289°
2026-05-06 14:37 14.50585 121.00904 66 ft 6 kts 328°
2026-05-06 14:37 14.50593 121.00899 65 ft 0 kts 329°